Le nostre stazioni meteo in Italia

Pubblicità
Il mio iltempo24.it
Bari, Italia (16271): Temperatura & dewpoint: 15.09.2018 05:00:00 - 21.09.2018 05:00:00 (CEST)Bari, Italia (16271): velocità del vento: 15.09.2018 05:00:00 - 21.09.2018 05:00:00 (CEST)Bari, Italia (16271): direzione del vento: 15.09.2018 05:00:00 - 21.09.2018 05:00:00 (CEST)Bari, Italia (16271): reduced air pressure: 15.09.2018 05:00:00 - 21.09.2018 05:00:00 (CEST)Bari, Italia (16271): precipitazioni: 15.09.2018 05:00:00 - 21.09.2018 05:00:00 (CEST)
Data & Tempo tt [°C] td [°C] ff [km/h] ff [kn] dd ppp [hPa] rr [mm]
21.09.2018 05:00:00 - - - - - - -
21.09.2018 04:00:00 22,0 17,5 4 2 O 1016,8 -
21.09.2018 03:00:00 22,2 17,7 5 3 O 1017,0 -
21.09.2018 02:00:00 22,7 18,2 8 4 O 1017,1 0,0
21.09.2018 01:00:00 23,2 18,5 8 4 O 1017,2 -
21.09.2018 00:00:00 24,1 20,4 8 4 O 1017,4 -
20.09.2018 23:00:00 24,8 20,8 9 5 NO 1017,5 -
20.09.2018 22:00:00 24,8 20,8 8 4 NO 1017,6 -
20.09.2018 21:00:00 24,9 20,9 9 5 NO 1017,7 -
20.09.2018 20:00:00 25,0 20,2 8 4 NO 1017,5 0,0
20.09.2018 19:00:00 25,3 20,5 11 6 NO 1017,4 -
20.09.2018 18:00:00 25,7 20,7 11 6 NO 1017,5 -
20.09.2018 17:00:00 26,1 21,9 15 8 NO 1017,4 -
20.09.2018 16:00:00 27,2 20,2 16 9 NO 1017,6 -
20.09.2018 15:00:00 27,3 22,9 18 10 NO 1018,1 -
20.09.2018 14:00:00 26,3 21,2 16 9 NO 1018,3 0,0
20.09.2018 13:00:00 25,4 20,4 15 8 NO 1019,1 -
20.09.2018 12:00:00 25,0 20,0 13 7 NO 1019,2 -
20.09.2018 11:00:00 24,5 19,7 15 8 NO 1019,6 -
20.09.2018 10:00:00 24,4 19,6 9 5 NO 1019,2 -
20.09.2018 09:00:00 24,2 20,5 5 3 NO 1019,0 -
20.09.2018 08:00:00 23,3 19,4 8 4 O 1018,7 0,0
20.09.2018 07:00:00 22,9 18,4 5 3 O 1018,6 -
20.09.2018 06:00:00 23,1 18,6 8 4 O 1018,6 -
20.09.2018 05:00:00 23,0 18,5 5 3 O 1018,4 -
20.09.2018 04:00:00 22,9 18,4 9 5 O 1018,6 -
20.09.2018 03:00:00 23,7 20,8 8 4 NO 1018,9 -
20.09.2018 02:00:00 23,4 18,6 9 5 O 1019,1 0,0
20.09.2018 01:00:00 23,9 19,1 8 4 NO 1019,2 -
20.09.2018 00:00:00 24,6 19,8 13 7 NO 1019,6 -
19.09.2018 23:00:00 25,3 21,3 8 4 NO 1019,3 -
19.09.2018 22:00:00 25,5 19,1 5 3 NO 1019,3 -
19.09.2018 21:00:00 25,6 19,2 4 2 O 1019,3 -
19.09.2018 20:00:00 25,3 19,6 8 4 O 1018,9 0,0
19.09.2018 19:00:00 25,3 20,5 8 4 O 1018,8 -
19.09.2018 18:00:00 25,6 20,8 18 10 O 1018,2 -
19.09.2018 17:00:00 26,3 20,6 16 9 O 1018,2 -
19.09.2018 16:00:00 26,7 22,5 18 10 O 1018,2 -
19.09.2018 15:00:00 27,4 20,4 15 8 O 1018,6 -
19.09.2018 14:00:00 26,7 22,5 11 6 NO 1019,2 0,0
19.09.2018 13:00:00 26,9 21,6 11 6 NO 1019,5 -
19.09.2018 12:00:00 27,0 22,6 11 6 NO 1019,6 -
19.09.2018 11:00:00 26,7 22,5 9 5 NO 1019,7 -
19.09.2018 10:00:00 26,0 21,8 4 2 S 1019,7 -
19.09.2018 09:00:00 25,3 20,5 2 1 S 1019,4 -
19.09.2018 08:00:00 22,8 18,3 8 4 S 1019,7 0,0
19.09.2018 07:00:00 21,9 18,4 8 4 S 1019,3 -
19.09.2018 06:00:00 22,0 16,2 8 4 S 1019,0 -
19.09.2018 05:00:00 22,4 16,1 8 4 S 1018,9 -
19.09.2018 04:00:00 22,6 16,3 9 5 S 1018,8 -
19.09.2018 03:00:00 23,2 16,4 8 4 S 1019,0 -
19.09.2018 02:00:00 23,3 17,0 5 3 S 1019,2 0,0
19.09.2018 01:00:00 23,3 17,0 8 4 S 1019,5 -
19.09.2018 00:00:00 23,6 17,3 9 5 S 1019,4 -
18.09.2018 23:00:00 23,5 17,6 11 6 S 1019,5 -
18.09.2018 22:00:00 23,9 17,6 8 4 S 1019,3 -
18.09.2018 21:00:00 25,1 18,2 13 7 O 1019,4 -
18.09.2018 20:00:00 25,5 20,0 15 8 O 1019,1 0,0
18.09.2018 19:00:00 25,4 19,5 15 8 O 1018,9 -
18.09.2018 18:00:00 25,9 19,9 21 11 O 1018,9 -
18.09.2018 17:00:00 26,8 -96,1 22 12 O 1018,9 -
18.09.2018 16:00:00 27,0 20,5 22 12 O 1019,1 -
18.09.2018 15:00:00 27,5 20,3 26 14 O 1019,4 -
18.09.2018 14:00:00 27,5 19,5 26 14 O 1019,8 0,0
18.09.2018 13:00:00 27,7 19,2 18 10 NO 1020,0 -
18.09.2018 12:00:00 28,4 17,2 9 5 NO 1020,5 -
18.09.2018 11:00:00 27,2 18,2 5 3 S 1021,0 -
18.09.2018 10:00:00 25,5 16,6 4 2 S 1020,9 -
18.09.2018 09:00:00 24,1 15,5 2 1 S 1020,8 -
18.09.2018 08:00:00 22,3 15,1 8 4 S 1020,4 0,0
18.09.2018 07:00:00 21,1 13,9 11 6 S 1019,9 -
18.09.2018 06:00:00 21,5 13,8 9 5 S 1019,8 -
18.09.2018 05:00:00 22,0 14,5 11 6 S 1019,9 -
18.09.2018 04:00:00 22,2 14,7 5 3 S 1019,8 -
18.09.2018 03:00:00 23,0 15,5 4 2 S 1020,0 -
18.09.2018 02:00:00 23,4 15,9 4 2 S 1019,8 0,0
18.09.2018 01:00:00 23,9 15,8 8 4 S 1019,8 -
18.09.2018 00:00:00 24,4 15,8 9 5 S 1020,0 -
17.09.2018 23:00:00 24,9 16,0 5 3 S 1020,2 -
17.09.2018 22:00:00 25,2 16,8 4 2 O 1020,4 -
17.09.2018 21:00:00 25,4 17,3 4 2 O 1020,4 -
17.09.2018 20:00:00 25,6 16,9 5 3 O 1020,1 0,0
17.09.2018 19:00:00 25,7 17,8 9 5 O 1019,8 -
17.09.2018 18:00:00 25,9 18,3 16 9 O 1019,9 -
17.09.2018 17:00:00 26,7 20,5 22 12 O 1019,8 -
17.09.2018 16:00:00 27,4 20,4 21 11 O 1020,4 -
17.09.2018 15:00:00 27,6 20,4 18 10 NO 1021,1 -
17.09.2018 14:00:00 27,5 20,8 16 9 NO 1021,6 0,0
17.09.2018 13:00:00 27,0 22,6 18 10 NO 1021,9 -
17.09.2018 12:00:00 27,0 22,6 16 9 NO 1022,0 -
17.09.2018 11:00:00 27,0 21,9 13 7 NO 1022,2 -
17.09.2018 10:00:00 25,9 20,8 5 3 O 1022,2 -
17.09.2018 09:00:00 24,1 21,4 5 3 O 1021,9 -
17.09.2018 08:00:00 22,2 19,7 8 4 O 1021,8 0,0
17.09.2018 07:00:00 21,8 19,3 8 4 S 1021,6 -
17.09.2018 06:00:00 21,8 18,9 9 5 O 1021,4 -
17.09.2018 05:00:00 21,9 17,6 11 6 O 1021,5 -
17.09.2018 04:00:00 21,7 17,4 11 6 O 1021,4 -
17.09.2018 03:00:00 22,3 17,8 8 4 S 1021,3 -
17.09.2018 02:00:00 23,2 18,7 5 3 O 1021,6 0,0
17.09.2018 01:00:00 23,3 18,8 4 2 O 1021,8 -
17.09.2018 00:00:00 23,3 18,5 8 4 O 1021,9 -
16.09.2018 23:00:00 24,3 19,5 5 3 O 1021,8 -
16.09.2018 22:00:00 24,8 20,0 5 3 O 1021,7 -
16.09.2018 21:00:00 25,0 20,2 5 3 NO 1021,9 -
16.09.2018 20:00:00 25,3 21,1 4 2 NO 1021,3 0,0
16.09.2018 19:00:00 26,1 20,1 5 3 NO 1021,2 -
16.09.2018 18:00:00 26,9 20,2 5 3 NO 1021,3 -
16.09.2018 17:00:00 27,5 21,0 13 7 NO 1021,2 -
16.09.2018 16:00:00 27,7 20,7 16 9 NO 1021,5 -
16.09.2018 15:00:00 27,7 21,0 18 10 NO 1022,0 -
16.09.2018 14:00:00 27,9 20,9 16 9 NO 1022,1 0,0
16.09.2018 13:00:00 26,9 20,7 15 8 NO 1022,7 -
16.09.2018 12:00:00 26,5 20,8 11 6 NO 1023,1 -
16.09.2018 11:00:00 25,6 21,6 15 8 NO 1022,9 -
16.09.2018 10:00:00 24,9 20,1 15 8 NO 1022,7 -
16.09.2018 09:00:00 24,1 19,3 5 3 O 1022,2 -
16.09.2018 08:00:00 22,0 17,7 9 5 S 1021,7 0,0
16.09.2018 07:00:00 21,5 16,6 9 5 O 1021,3 -
16.09.2018 06:00:00 21,7 18,2 9 5 O 1021,1 -
16.09.2018 05:00:00 21,9 16,8 9 5 O 1021,2 -
16.09.2018 04:00:00 22,3 16,9 11 6 O 1021,4 -
16.09.2018 03:00:00 22,7 17,3 8 4 O 1021,5 -
16.09.2018 02:00:00 22,5 17,1 8 4 O 1021,7 0,0
16.09.2018 01:00:00 22,8 17,4 4 2 O 1021,6 -
16.09.2018 00:00:00 23,4 18,0 9 5 O 1021,4 -
15.09.2018 23:00:00 23,8 18,2 8 4 O 1021,0 -
15.09.2018 22:00:00 24,7 20,7 4 2 O 1020,7 -
15.09.2018 21:00:00 25,0 19,3 4 2 O 1020,8 -
15.09.2018 20:00:00 25,3 19,1 5 3 O 1020,2 0,0
15.09.2018 19:00:00 25,9 19,2 4 2 O 1019,8 -
15.09.2018 18:00:00 26,3 19,9 11 6 O 1019,4 -
15.09.2018 17:00:00 27,1 19,9 13 7 O 1019,2 -
15.09.2018 16:00:00 27,9 19,9 15 8 NO 1019,3 -
15.09.2018 15:00:00 27,7 19,7 16 9 NO 1019,6 -
15.09.2018 14:00:00 27,4 20,4 15 8 NO 1019,9 0,0
15.09.2018 13:00:00 27,1 20,6 15 8 NO 1019,9 -
15.09.2018 12:00:00 26,6 20,1 11 6 NO 1019,9 -
15.09.2018 11:00:00 26,7 19,8 11 6 NO 1019,9 -
15.09.2018 10:00:00 25,7 19,5 5 3 S 1019,6 -
15.09.2018 09:00:00 23,9 18,9 4 2 S 1019,2 -
15.09.2018 08:00:00 21,9 18,2 5 3 S 1018,6 0,0
15.09.2018 07:00:00 20,9 16,2 9 5 S 1018,3 -
15.09.2018 06:00:00 21,4 16,5 8 4 S 1017,8 -
15.09.2018 05:00:00 21,6 16,5 8 4 S 1017,6 -

tt = Temperatura
td = dewpoint
ff = velocità del vento
dd = direzione del vento
ppp = reduced air pressure
rr = precipitazioni

Stazioni seguenti

WeatherPro
AMSI
MeteoEarth